Weather History for KODX - September, 2012

Change the Weather History Date:

Thursday, September 6, 2012

  Actual Average Record
Temperature  
Mean Temperature 71 °F 68 °F  
Max Temperature 95 °F 82 °F 98 °F (1998)
Min Temperature 47 °F 54 °F 43 °F (2014)
Degree Days  
Heating Degree Days 0 2  
Month to date heating degree days 0 7  
Since 1 July heating degree days 11 21  
Cooling Degree Days 6 5  
Month to date cooling degree days 58 32  
Year to date cooling degree days 1200 789  
Growing Degree Days 22 (Base 50)    
Moisture  
Dew Point 45 °F    
Average Humidity 51    
Maximum Humidity 86    
Minimum Humidity 16    
Precipitation  
Precipitation 0.00 in 0.07 in 1.32 in (1946)
Month to date precipitation 0.00 0.55  
Year to date precipitation 10.92 19.46  
Sea Level Pressure  
Sea Level Pressure 29.88 in    
Wind  
Wind Speed 9 mph (WSW)    
Max Wind Speed 23 mph    
Max Gust Speed 30 mph    
Visibility 10 miles    
Events      
T = Trace of Precipitation, MM = Missing Value Source: NWS Daily Summary

Daily Weather History Graph

Daily Weather History Graph

Search for Another Location

Airport or City:

Trip Planner

Search our weather history database for the weather conditions in past years. The results will help you decide how hot, cold, wet, or windy it might be!

Date:

Astronomy

Sep. 06, 2012 Rise Set
Actual Time 7:07 AM CDT 7:59 PM CDT
Civil Twilight 6:39 AM CDT 8:27 PM CDT
Nautical Twilight 6:05 AM CDT 9:01 PM CDT
Astronomical Twilight 5:30 AM CDT 9:36 PM CDT
Moon 11:05 PM CDT (9/6) 1:13 PM CDT (9/6)
Length of Visible Light 13h 48m
Length of Day
12h 52m
Waning Gibbous, 67% of the Moon is Illuminated
Sep 6
Waning Gibbous
Sep 8
Last Quarter
Sep 15
New
Sep 22
First Quarter
Sep 29
Full

Hourly Weather History & Observations

Time (CDT) Temp. Heat Index Dew Point Humidity Pressure Visibility Wind Dir Wind Speed Gust Speed Precip Events Conditions
12:53 AM 48.9 °F - 43.0 °F 80% 30.00 in 10.0 mi Calm Calm - N/A   Clear
1:53 AM 48.9 °F - 44.1 °F 83% 30.00 in 10.0 mi Calm Calm - N/A   Clear
2:53 AM 48.9 °F - 42.1 °F 77% 29.99 in 10.0 mi Calm Calm - N/A   Clear
3:53 AM 48.0 °F - 43.0 °F 83% 29.98 in 10.0 mi Calm Calm - N/A   Clear
4:53 AM 48.0 °F - 44.1 °F 86% 29.97 in 10.0 mi Calm Calm - N/A   Clear
5:53 AM 48.9 °F - 44.1 °F 83% 29.97 in 10.0 mi Calm Calm - N/A   Clear
6:53 AM 48.9 °F - 43.0 °F 80% 29.98 in 10.0 mi Calm Calm - N/A   Clear
7:53 AM 51.1 °F - 44.1 °F 77% 29.98 in 9.0 mi Calm Calm - N/A   Clear
8:53 AM 63.0 °F - 42.1 °F 46% 29.95 in 10.0 mi SSE 6.9 mph - N/A   Clear
9:53 AM 71.1 °F - 41.0 °F 34% 29.93 in 10.0 mi SSE 16.1 mph 19.6 mph N/A   Clear
10:53 AM 75.9 °F - 44.1 °F 32% 29.90 in 10.0 mi South 20.7 mph 27.6 mph N/A   Clear
11:53 AM 82.0 °F - 48.9 °F 31% 29.88 in 10.0 mi South 18.4 mph 25.3 mph N/A   Clear
12:53 PM 84.0 °F 82.5 °F 53.1 °F 34% 29.85 in 10.0 mi South 15.0 mph 23.0 mph N/A   Clear
1:53 PM 89.1 °F 87.1 °F 55.0 °F 31% 29.81 in 10.0 mi South 19.6 mph 27.6 mph N/A   Clear
2:53 PM 91.0 °F 88.9 °F 55.0 °F 29% 29.78 in 10.0 mi SSW 16.1 mph 24.2 mph N/A   Clear
3:53 PM 91.9 °F 90.0 °F 55.0 °F 29% 29.75 in 10.0 mi SW 18.4 mph 25.3 mph N/A   Clear
4:53 PM 95.0 °F - 42.1 °F 16% 29.73 in 10.0 mi WSW 15.0 mph 21.9 mph N/A   Clear
5:53 PM 93.0 °F - 41.0 °F 16% 29.73 in 10.0 mi West 11.5 mph - N/A   Clear
6:53 PM 89.1 °F - 37.9 °F 16% 29.75 in 10.0 mi NW 11.5 mph - N/A   Clear
7:53 PM 78.1 °F - 42.1 °F 28% 29.77 in 10.0 mi NNW 6.9 mph - N/A   Clear
8:53 PM 69.1 °F - 46.0 °F 44% 29.80 in 10.0 mi NNW 9.2 mph - N/A   Clear
9:53 PM 66.9 °F - 46.0 °F 47% 29.82 in 10.0 mi NNW 8.1 mph - N/A   Clear
10:53 PM 70.0 °F - 45.0 °F 41% 29.84 in 10.0 mi NNW 9.2 mph - N/A   Clear
11:53 PM 70.0 °F - 46.0 °F 42% 29.85 in 10.0 mi NNW 11.5 mph - N/A   Clear